Location: La Silve
(44.2414°N, 5.8889°E)
Time: 12:38:20
(UTC+00:00)

Spot 2 - Pass Details

Date: 01 December 2020
Orbit: 569 x 774 km, 98.7° (Epoch: 25 January)

Event Time Altitude Azimuth Distance (km) Brightness Sun altitude
Rises 16:25:15 0° 165° (SSE) 3,013 7.7 -5.0°
Reaches altitude 10° 16:27:25 10° 165° (SSE) 2,134 7.0 -5.4°
Maximum altitude 16:32:07 88° 253° (WSW) 725 4.5 -6.1°
Drops below altitude 10° 16:37:08 10° 346° (NNW) 2,269 6.9 -6.9°
Sets 16:39:29 0° 346° (NNW) 3,220 7.6 -7.3°
